Flag for Germany Weather past 2 weeks in Prenzlau, Brandenburg, Germany

Now
48 °F

Passing clouds.


Feels Like: 45 °F
Forecast: 36 / 58 °F
Wind: 7 mph from North

Location: Szczecin Airport


UV Index: 3 (Moderate)

Visibility: N/A


Pressure: 30.42 "Hg

Humidity: 37%

Dew point: 23 °F

Location of PrenzlauLocation

Historic Weather in Prenzlau

°F

Prenzlau temperature yesterday

Maximum temperature yesterday: 50 °F (at 11:00 AM)
Minimum temperature yesterday: 37 °F (at 5:00 AM)
Average temperature yesterday: 44 °F

Past Weeks' High & Low Weather Summary

 TemperatureHumidityPressure
High64 °F (Apr 7, 4:00 PM)100% (Apr 10, 8:00 AM)30.42 "Hg (Apr 10, 8:00 AM)
Low30 °F (Apr 16, 5:00 AM)38% (Apr 4, 6:00 PM)29.59 "Hg (Apr 14, 9:30 AM)
Average47 °F75%29.94 "Hg
* Reported Apr 1 10:00 AM — Apr 16 10:00 AM, Prenzlau, Weather by CustomWeather, © 2014

Note: Actual official high and low records may vary slightly from our data, if they occured in-between our weather recording intervals... More about our weather records

Advertising

Historic Weather Conditions — Data for Previous 24 hours

 ConditionsComfort  
Time TempWeatherWind HumidityBarometerVisibility
10:00 AM
Apr 16
46 °FPassing clouds.6 mph43%30.42 "HgN/A
9:30 AM46 °FPassing clouds.8 mph62%30.42 "HgN/A
9:00 AM45 °FPassing clouds.3 mph71%30.42 "HgN/A
8:30 AM41 °FSunny.6 mph87%30.42 "Hg10 mi
8:00 AM37 °FPassing clouds.3 mph93%30.39 "HgN/A
7:30 AM34 °FSunny.5 mph93%30.39 "Hg10 mi
7:00 AM32 °FSunny.3 mph93%30.39 "Hg10 mi
6:30 AM30 °FFog.3 mph100%30.39 "HgN/A
6:00 AM30 °FFog.5 mph93%30.36 "HgN/A
5:30 AM30 °FFog.5 mph93%30.36 "HgN/A
5:00 AM30 °FFog.2 mph93%30.33 "HgN/A
4:30 AM32 °FClear.3 mph93%30.33 "Hg10 mi
4:00 AM34 °FClear.3 mph93%30.33 "Hg10 mi
3:30 AM34 °FClear.3 mph93%30.33 "Hg10 mi
3:00 AM34 °FClear.5 mph93%30.30 "Hg10 mi
1:00 AM36 °FClear.2 mph93%30.27 "Hg10 mi
12:30 AM37 °FClear.5 mph87%30.27 "Hg10 mi
12:00 AM37 °FPassing clouds.3 mph87%30.27 "HgN/A
11:30 PM
Apr 15
37 °FClear.7 mph93%30.27 "Hg10 mi
11:00 PM39 °FClear.5 mph87%30.24 "Hg10 mi
10:30 PM39 °FPassing clouds.5 mph87%30.24 "HgN/A
10:00 PM41 °FPassing clouds.7 mph81%30.21 "HgN/A
9:30 PM41 °FPassing clouds.7 mph81%30.21 "HgN/A
9:00 PM41 °FScattered clouds.6 mph87%30.18 "HgN/A
8:30 PM41 °FScattered clouds.7 mph81%30.18 "HgN/A
8:00 PM43 °FScattered clouds.8 mph81%30.15 "HgN/A
7:30 PM43 °FScattered clouds.9 mph76%30.15 "HgN/A
7:00 PM45 °FScattered clouds.9 mph71%30.12 "HgN/A
6:30 PM45 °FPartly sunny.8 mph76%30.12 "HgN/A
6:00 PM45 °FPartly sunny.9 mph76%30.09 "HgN/A
5:30 PM46 °FPartly sunny.14 mph66%30.09 "HgN/A
5:00 PM46 °FScattered clouds.12 mph66%30.07 "HgN/A
4:30 PM48 °FScattered clouds.13 mph62%30.07 "HgN/A
4:00 PM46 °FScattered clouds.13 mph66%30.07 "HgN/A
3:30 PM48 °FScattered clouds.15 mph62%30.04 "HgN/A
3:00 PM48 °FScattered clouds.14 mph58%30.04 "HgN/A
2:30 PM48 °FScattered clouds.14 mph58%30.04 "HgN/A
2:00 PM50 °FScattered clouds.16 mph54%30.01 "HgN/A
1:30 PM50 °FScattered clouds.18 mph58%30.01 "HgN/A
11:30 AM48 °FScattered clouds.14 mph76%29.98 "HgN/A
11:00 AM50 °FScattered clouds.16 mph71%29.95 "HgN/A
Weather by CustomWeather, © 2014

See weather overview